#timestamp,LO_Frequency,Hit,StdDev 
1523998815.2,286047001.5,N
1523998835.9,286047002.0,N
1523998855.7,286047002.5,N
1523998875.6,286047001.6,N
1523998895.4,286047003.8,N
1523998915.2,286047004.1,N
1523998935.1,286047003.6,N
1523998936.0,286047003.6,N
1523998955.8,286047004.3,N
1523998975.7,286047004.1,N
1523998995.5,286047003.1,N
1523999015.3,286047005.4,Y
1523999035.2,286047004.0,P
1523999055.0,286047003.9,P
1523999055.9,286047003.9,P
1523999075.7,286047002.0,N
1523999095.6,286047001.5,N
1523999115.4,286047002.2,N
1523999135.3,286047002.0,N
1523999155.1,286047002.0,N
1523999156.0,286047002.0,N
1523999175.8,286047001.9,N
1523999195.7,286047001.4,N
1523999215.5,286047001.6,N
1523999235.4,286047002.0,N
1523999255.2,286047000.1,N
1523999275.0,286047001.5,N
1523999275.9,286047001.5,N
1523999295.8,286047002.6,N
1523999315.6,286047002.4,N
1523999335.4,286047003.6,Y
1523999355.3,286047000.6,P
1523999375.1,286047000.4,N
1523999395.9,286046998.2,N
1523999415.7,286047000.9,N
1523999435.5,286047001.9,N
1523999455.4,286047002.0,N
1523999475.2,286047004.2,Y
1523999495.0,286047002.5,P
1523999496.0,286047002.5,P
1523999515.8,286047000.2,N
1523999535.6,286047000.2,N
1523999555.5,286047002.2,N
1523999575.3,286047002.7,N
1523999595.1,286047002.4,N
1523999615.9,286047001.7,N
1523999635.7,286047005.5,Y
1523999655.6,286047001.6,P
1523999675.4,286047003.9,P
1523999695.2,286047003.6,P
1523999715.1,286047004.0,Y
1523999716.0,286047004.0,P
1523999735.8,286046996.5,P
1523999755.6,286046996.9,N
1523999775.5,286046999.3,N
1523999795.3,286046999.4,N
1523999815.2,286046999.2,N
1523999835.9,286046999.2,N
1523999855.7,286046998.6,N
1523999875.6,286046998.7,N
1523999895.4,286046999.2,N
1523999915.2,286046997.4,N
1523999935.1,286046999.5,N
1523999936.0,286046999.5,N
1523999955.8,286046999.6,N
1523999975.7,286046999.0,N
1523999995.5,286046997.4,N
1524000015.3,286046995.3,N
1524000035.2,286046996.2,N
1524000055.0,286046996.1,N
1524000055.9,286046996.1,N
1524000075.8,286046994.9,N
1524000095.6,286046995.5,N
1524000115.4,286046995.0,N
1524000135.3,286046997.8,N
1524000155.1,286046995.4,N
1524000175.8,286046995.8,N
1524000195.7,286046997.1,N
1524000215.5,286046996.1,N
1524000235.4,286046993.3,Y
1524000255.2,286046997.1,P
1524000275.0,286046997.4,P
1524000275.9,286046997.4,P
1524000295.8,286046997.3,Y
1524000315.6,286047000.6,P
1524000335.5,286046998.6,N
1524000355.3,286047000.9,N
1524000375.1,286047002.5,N
1524000395.9,286047001.8,N
1524000415.7,286047002.3,N
1524000435.5,286047000.2,N
1524000455.4,286047000.1,N
1524000475.2,286047001.0,N
1524000495.1,286046999.9,N
1524000496.0,286046999.9,N
1524000515.8,286047002.8,N
1524000535.6,286047000.3,N
1524000555.5,286046998.5,N
1524000575.3,286047002.4,N
1524000595.1,286047000.2,N
1524000615.9,286047000.0,N
1524000635.7,286047000.4,N
1524000655.6,286047002.4,N
1524000675.4,286047002.2,N
1524000695.2,286047001.9,N
1524000715.1,286047001.8,N
1524000716.0,286047001.8,N
1524000735.8,286046999.8,N
1524000755.7,286047002.4,N
1524000775.5,286046999.7,N
1524000795.3,286047002.3,N
1524000815.2,286047002.7,N
1524000835.9,286047002.2,N
1524000855.7,286047001.3,N
1524000875.6,286047002.8,N
1524000895.4,286046998.5,N
1524000915.2,286046998.7,N
1524000935.1,286046996.7,N
1524000936.0,286046996.7,N
1524000955.8,286046999.8,N
1524000975.7,286046999.7,N
1524000995.5,286047001.4,N
1524001015.3,286047002.2,N
1524001035.2,286047002.2,N
1524001055.0,286047000.3,N
1524001055.9,286047000.3,N
1524001075.8,286047000.2,N
1524001095.6,286047004.0,N
1524001115.4,286047004.1,N
1524001135.3,286047003.5,N
1524001155.1,286047007.1,Y
1524001175.8,286047005.6,P
1524001195.7,286047002.9,N
1524001215.5,286047002.1,N
1524001235.4,286047002.1,N
1524001255.2,286047002.1,N
1524001275.0,286047001.9,N
1524001275.9,286047001.9,N
1524001295.8,286047002.8,N
1524001315.6,286047000.9,N
1524001335.4,286047000.9,N
1524001355.3,286046999.4,N
1524001375.1,286046996.9,N
1524001395.9,286047000.8,N
1524001415.7,286047001.1,N
1524001435.5,286046999.3,N
1524001455.4,286047001.1,N
1524001475.2,286046998.1,N
1524001495.0,286046999.9,N
1524001496.0,286046999.9,N
1524001515.8,286047000.0,N
1524001535.6,286046999.8,N
1524001555.5,286046999.8,N
1524001575.3,286047002.6,N
1524001595.1,286047002.8,N
1524001615.9,286047002.3,N
1524001635.7,286047004.3,N
1524001655.6,286047003.7,N
1524001675.4,286047003.8,N
1524001695.2,286047002.4,N
1524001715.1,286046999.8,N
1524001716.0,286046999.8,N
1524001735.8,286047001.1,N
1524001755.6,286046996.6,N
1524001775.5,286046998.0,N
1524001795.3,286046996.5,N
1524001815.2,286046996.9,N
1524001835.9,286046997.7,N
1524001855.7,286046999.2,N
1524001875.6,286046998.3,N
1524001895.4,286046998.8,N
1524001915.2,286046998.8,N
1524001935.1,286046998.2,N
1524001936.0,286046998.2,N
1524001955.8,286047002.8,N
1524001975.7,286047001.3,N
1524001995.5,286047004.2,N
1524002015.3,286047004.4,N
1524002035.2,286047001.6,N
1524002055.0,286047002.3,N
1524002055.9,286047002.3,N
1524002075.8,286047002.6,N
1524002095.6,286047002.4,N
1524002115.4,286047002.0,N
1524002135.3,286047002.2,N
1524002155.1,286047001.5,N
1524002175.8,286047004.1,N
1524002195.7,286047003.4,N
1524002215.5,286047004.9,N
1524002235.4,286047005.8,N
1524002255.2,286047005.1,N
1524002275.0,286047004.7,N
1524002275.9,286047004.7,N
1524002295.8,286047005.2,N
1524002315.6,286047005.6,N
1524002335.4,286047005.2,N
1524002355.3,286047007.4,N
1524002375.1,286047006.4,N
1524002395.9,286047006.4,N
